Theta_e
339 339 339 338 338 337 336 335 334 331 328 325 327 332 334 334 334 334 335 335 334 336 335 336 334 333 334 332 332 333 332 332 331 332 332 330 327 324 321 320 322 323 325 327 327 327 327 326 325 325 325 325 325 325 324 324 323 323 323 323 323 323 323 323 323 323 323 322 322 323 322 322 323 322 322 323 323 324 324 324 323 323 323 323 323
339 339 339 338 337 337 337 336 335 335 332 328 327 331 333 334 335 334 335 336 336 336 335 335 333 332 333 333 332 332 332 332 332 332 331 330 329 326 323 322 322 322 325 327 326 327 327 326 326 326 326 325 324 324 324 324 323 323 323 323 323 323 323 323 322 322 323 322 322 323 323 323 323 323 322 322 323 324 324 324 323 323 323 323 324
338 338 338 338 338 337 338 336 336 335 334 332 329 329 330 333 334 334 335 335 336 335 334 334 333 332 332 333 333 332 332 331 331 331 331 330 329 328 326 323 322 323 324 325 326 327 327 326 327 327 327 324 323 324 324 324 323 323 323 322 322 322 323 323 322 323 323 322 322 323 323 323 323 323 323 323 323 324 324 324 324 324 324 324 324
338 338 338 338 338 338 338 337 336 335 335 334 332 330 329 332 333 333 334 335 335 335 333 333 334 333 331 332 333 333 333 331 331 331 331 330 329 329 326 320 319 320 322 322 325 328 327 327 328 327 327 324 323 323 324 324 324 323 323 322 322 322 323 323 323 323 323 322 322 322 322 322 322 322 322 323 323 323 324 324 324 324 324 325 325
337 337 337 337 337 338 337 337 336 336 336 335 334 332 331 332 331 331 332 333 333 333 332 333 334 333 332 332 332 333 333 331 332 332 332 331 330 329 325 317 313 314 317 318 322 326 326 328 328 328 327 325 324 323 324 324 324 323 323 322 322 322 322 322 323 323 323 323 322 322 322 321 321 322 322 323 323 323 323 324 324 324 324 325 324
336 336 336 336 336 337 337 336 336 336 336 336 335 334 333 333 332 331 331 332 332 332 332 332 334 333 332 332 333 333 332 332 333 333 332 331 330 329 325 319 313 312 314 315 319 324 327 328 328 328 327 326 327 326 325 323 321 321 322 323 322 322 322 323 323 323 323 323 322 322 321 321 321 322 322 323 323 323 323 324 324 324 324 324 324
336 336 336 336 336 336 336 336 335 335 335 335 335 335 335 334 333 332 331 331 333 334 333 333 334 334 333 332 333 333 333 333 334 334 332 331 331 329 327 324 319 316 316 318 321 325 328 329 329 328 326 326 329 327 325 322 320 319 320 322 322 322 322 323 323 323 323 322 321 321 321 321 322 322 322 322 323 323 323 324 324 324 324 324 324
336 336 335 335 335 335 335 335 334 335 334 335 335 335 335 334 334 334 332 331 332 334 334 334 334 334 333 333 333 333 333 334 334 334 332 330 330 329 328 328 325 322 320 322 325 327 328 328 330 330 327 327 328 327 325 323 322 320 317 319 321 321 323 323 323 322 322 321 322 322 321 321 322 322 323 323 322 322 323 324 324 323 323 323 323
337 336 335 335 335 335 335 334 334 334 334 334 334 334 335 334 334 334 333 333 332 333 334 335 335 335 334 334 334 333 333 334 334 335 333 331 329 329 329 329 329 327 324 323 327 329 329 328 328 330 329 327 328 329 327 325 324 322 316 313 318 321 323 323 323 323 322 322 322 321 321 321 322 323 323 322 322 322 322 323 323 322 322 321 320
338 337 336 336 335 335 334 334 334 334 334 334 333 334 335 335 335 335 334 333 333 333 333 334 335 335 335 334 335 334 333 334 334 334 334 332 329 329 330 330 330 331 328 326 328 329 329 329 328 329 329 327 329 331 331 329 326 324 315 309 315 322 324 323 323 323 322 322 322 321 321 321 322 323 323 323 322 323 323 323 323 322 321 320 318
338 338 337 337 336 335 335 335 335 335 334 334 334 335 335 335 335 335 334 333 334 333 333 333 334 334 334 334 334 334 333 333 333 333 333 332 330 329 330 331 331 332 331 330 330 330 330 330 328 328 328 327 328 331 332 331 329 326 317 308 315 323 324 324 323 323 323 322 321 321 321 321 322 323 323 322 321 321 321 320 320 319 320 319 316
339 339 338 338 337 336 336 336 336 336 335 335 335 335 335 334 334 335 335 334 333 333 333 333 333 333 333 334 334 333 332 332 332 333 332 332 331 330 331 332 332 332 332 332 332 331 331 330 329 328 329 328 327 329 331 331 330 329 321 310 317 324 324 324 324 324 324 323 322 321 321 321 322 323 322 321 320 319 318 314 312 314 316 314 309
338 339 339 338 337 337 337 336 336 336 336 335 334 334 334 334 334 335 335 334 334 333 333 332 333 333 333 333 332 331 330 331 332 332 332 332 330 330 332 332 333 332 332 332 332 331 331 331 330 328 328 328 327 328 330 331 329 331 325 315 318 325 324 324 325 324 324 323 322 321 320 321 323 323 322 321 320 320 317 311 306 307 308 305 302
338 338 338 338 337 337 337 337 336 336 336 336 335 335 335 335 335 335 335 335 334 334 333 332 333 333 333 332 332 331 330 330 331 332 332 332 331 331 332 333 332 332 332 332 331 331 331 331 331 329 326 326 327 328 329 331 329 330 328 319 319 324 324 324 325 324 325 324 323 322 321 321 323 323 322 321 320 320 317 311 303 301 301 300 298
338 338 338 338 338 338 338 337 337 336 336 336 337 336 335 335 336 336 335 335 334 334 333 333 332 331 332 332 333 332 332 331 331 333 333 333 334 332 331 332 332 332 332 331 331 331 331 331 332 330 327 327 328 327 327 330 330 330 330 324 320 323 324 325 326 325 326 325 324 323 321 321 322 323 322 321 320 319 316 308 301 298 299 297 299
338 338 338 338 338 338 338 338 337 337 337 337 337 337 336 336 336 336 336 335 334 333 333 334 333 330 330 332 332 332 333 332 331 332 333 333 334 334 332 332 331 332 331 331 331 330 330 331 332 331 330 330 330 328 326 328 330 329 330 328 324 325 326 327 327 327 327 326 325 324 322 321 322 322 322 321 320 319 314 305 299 298 297 296 300
337 337 338 338 338 337 337 338 337 337 337 337 337 336 336 336 336 335 335 335 335 334 334 334 334 332 330 330 331 332 332 331 330 332 332 332 333 334 334 332 331 331 330 330 330 330 330 330 330 330 330 331 331 330 326 326 329 329 329 330 328 328 329 329 328 327 328 327 325 324 323 322 322 322 322 321 321 318 311 303 298 298 298 296 298
335 336 336 336 337 337 336 336 337 336 336 336 336 335 335 335 335 333 332 333 334 333 334 333 334 334 330 330 331 332 331 330 332 333 332 332 332 333 333 332 332 331 330 330 330 330 330 329 329 329 329 331 330 330 328 326 328 328 329 329 329 329 330 329 328 328 329 328 325 324 324 323 322 322 322 321 320 317 308 300 299 299 299 299 298
335 335 336 336 336 336 335 336 336 335 334 334 335 335 335 335 335 332 332 333 332 331 333 333 333 333 331 330 330 331 331 330 333 335 334 332 331 332 333 332 332 331 330 331 330 330 330 329 329 328 329 330 330 330 329 328 328 328 328 329 329 329 329 329 329 328 328 328 326 323 323 323 322 322 322 320 321 316 304 298 299 298 299 300 300
336 336 336 336 336 335 335 335 335 333 333 334 333 333 334 334 334 334 333 333 332 330 331 332 333 333 332 331 330 330 330 330 331 332 334 334 332 332 333 333 333 331 331 331 330 330 330 329 329 328 329 330 330 330 330 330 330 328 327 328 329 329 328 329 329 328 328 328 327 323 321 323 322 322 321 320 321 314 300 298 298 296 297 298 299
336 336 335 335 336 336 335 335 334 333 333 333 333 333 333 333 333 334 333 331 330 330 330 332 333 332 331 331 330 330 329 330 329 328 331 334 333 332 332 333 332 331 331 331 331 331 330 329 328 328 330 330 330 330 330 331 329 326 324 326 329 328 328 329 328 328 328 327 327 323 322 323 322 322 320 319 321 310 298 298 297 296 297 296 297
334 334 334 334 335 335 335 335 335 334 334 333 333 332 332 332 332 333 332 331 330 330 331 332 331 331 331 330 329 329 329 329 329 329 330 332 333 332 331 332 332 331 331 331 331 331 330 329 328 328 329 329 329 330 330 330 328 324 322 325 327 328 328 329 328 328 327 327 324 321 323 323 322 323 320 319 320 308 297 297 297 296 297 296 297
333 333 334 334 334 335 335 335 335 335 335 333 333 332 331 331 331 332 332 332 331 330 330 331 330 330 331 330 329 329 329 329 329 330 330 330 332 333 331 331 331 330 331 330 330 331 331 329 328 329 329 328 329 330 329 328 327 325 324 325 326 327 328 328 328 328 326 327 321 317 322 323 322 323 320 320 319 305 296 297 297 297 297 296 297
332 333 333 333 333 333 334 334 334 334 334 333 333 333 331 329 330 331 331 332 332 331 330 331 331 329 330 331 330 330 330 330 329 330 330 330 331 332 331 331 331 330 330 330 331 331 331 329 328 329 328 328 329 329 328 327 327 325 324 326 326 327 328 327 328 327 325 327 320 314 320 323 322 322 320 320 316 302 297 298 296 297 297 297 298
331 332 333 333 332 333 333 334 334 334 334 333 333 333 332 330 330 330 330 331 331 331 331 333 333 331 330 331 330 330 330 330 330 330 330 329 329 330 331 331 331 331 330 331 331 331 331 329 328 329 328 328 328 327 328 327 326 324 323 325 326 327 328 327 328 327 326 325 317 313 320 322 322 321 319 319 312 300 299 299 296 297 298 298 299
329 330 331 331 332 332 333 333 333 333 334 334 333 333 332 331 331 330 330 330 330 330 331 332 333 332 331 330 329 330 331 331 330 329 329 329 329 329 330 331 330 330 330 331 331 331 331 329 329 328 328 328 328 327 327 326 325 323 321 322 325 326 328 327 327 327 325 318 310 313 320 321 322 320 318 317 309 303 302 299 297 298 298 300 300
326 327 328 330 331 331 332 332 332 333 333 333 332 332 332 332 332 330 329 329 329 330 331 332 332 331 331 330 329 329 330 331 330 330 330 330 330 329 330 330 330 330 330 330 330 330 331 330 329 328 328 328 328 327 326 325 325 324 319 318 323 327 327 327 327 326 319 309 308 314 319 321 321 319 318 314 308 305 303 298 297 300 301 302 302
324 325 326 328 329 330 330 330 331 331 331 332 332 331 331 331 331 330 329 328 329 330 331 331 331 331 331 331 330 329 330 330 330 330 331 330 330 330 330 330 330 330 330 330 329 329 330 330 330 329 328 328 327 326 326 325 325 325 319 315 320 326 327 327 327 323 313 306 309 316 319 321 320 318 317 311 306 305 301 296 299 302 304 304 304
322 323 325 327 328 329 329 329 329 328 329 329 329 329 329 329 330 330 329 328 328 329 329 330 331 331 331 330 329 329 330 330 330 330 331 331 330 331 330 329 329 329 330 331 330 328 330 331 330 329 328 328 327 326 325 325 324 325 321 315 316 321 324 326 325 318 309 305 310 316 320 321 319 317 314 307 303 303 299 297 300 304 306 307 307
321 322 323 324 325 326 326 326 326 325 326 327 327 327 328 328 329 330 330 329 328 328 328 329 330 331 331 330 329 329 330 330 330 330 330 331 331 331 331 330 329 328 328 330 330 328 328 330 331 330 329 328 328 326 325 325 325 324 322 319 316 314 315 319 320 314 308 305 307 313 318 320 317 313 309 303 301 301 299 297 301 305 308 309 308
319 320 320 320 320 322 324 324 324 325 325 326 326 327 326 327 329 329 329 329 328 328 328 328 329 330 330 330 330 330 330 330 330 330 331 331 331 331 331 330 329 328 327 328 329 329 328 330 331 330 329 329 327 326 325 325 325 324 322 320 318 312 308 311 314 313 307 303 303 307 311 315 313 308 303 301 299 300 299 298 301 306 309 310 309
316 318 317 317 318 320 321 322 323 324 326 326 326 327 326 327 328 329 329 329 328 328 328 328 329 329 328 329 330 331 331 330 330 331 332 331 331 331 331 330 330 330 328 327 328 329 328 329 330 330 329 329 327 326 325 324 324 323 322 320 317 312 306 307 312 312 306 301 301 301 303 306 305 302 301 299 299 300 299 299 302 306 309 310 309
313 314 314 315 315 316 317 317 318 320 322 324 325 326 327 327 328 329 329 329 328 328 328 328 328 328 327 328 329 330 331 331 331 331 332 331 330 330 331 331 330 330 330 328 328 329 329 329 329 330 329 328 327 326 325 324 323 322 321 320 316 310 306 305 310 310 304 301 300 299 300 300 300 300 299 298 299 299 299 300 303 306 309 310 309
311 311 312 313 313 314 314 313 313 315 317 319 320 322 324 325 327 328 328 327 327 327 327 327 327 328 328 327 328 328 329 330 331 331 331 331 330 329 330 330 330 330 330 329 328 328 329 329 329 329 328 328 327 325 324 324 323 321 320 317 312 308 306 305 308 307 303 301 300 299 299 299 299 299 299 298 299 299 299 300 304 307 309 310 309
309 309 310 310 311 312 312 311 310 311 313 314 316 318 320 322 324 326 327 326 326 326 327 327 327 327 327 327 327 328 327 328 330 330 330 330 330 330 329 329 329 330 330 329 328 328 328 328 329 329 328 328 326 324 323 323 322 320 317 314 310 307 306 305 306 305 303 302 300 299 299 299 299 299 299 299 299 299 300 301 304 308 310 310 309
306 307 307 308 308 309 310 308 307 308 309 310 312 314 315 318 321 323 325 326 326 326 326 326 327 326 327 327 327 327 327 327 328 329 327 328 329 328 327 328 329 330 330 330 329 329 329 328 328 328 328 327 326 324 323 322 321 318 316 314 313 313 313 310 306 304 304 302 300 299 299 299 300 300 299 299 299 300 300 301 304 308 310 310 309
304 305 305 305 306 306 308 307 305 305 306 307 308 310 311 314 317 320 322 324 325 325 326 326 326 326 327 327 327 327 327 327 328 328 327 326 327 327 327 329 330 330 331 330 329 329 328 328 327 327 327 326 326 324 322 321 319 316 317 317 316 319 322 319 311 305 304 303 301 299 299 299 300 300 300 300 300 300 301 302 304 308 310 310 309
304 304 303 303 304 303 305 305 303 302 303 304 305 306 308 310 313 316 319 321 323 325 326 327 326 326 326 327 328 328 328 328 328 328 327 327 326 326 327 329 331 331 330 330 330 328 328 327 326 327 326 325 325 323 321 321 318 314 316 319 320 321 323 321 315 307 304 303 301 300 299 299 300 300 300 300 300 301 302 302 304 308 310 311 310
304 304 303 303 303 302 302 303 301 300 301 302 302 303 304 307 310 313 316 319 321 324 326 327 327 326 326 326 327 328 328 328 328 328 328 328 327 326 326 327 329 330 330 330 330 329 328 327 326 326 326 325 325 323 319 320 319 314 315 319 320 320 321 321 317 310 306 305 301 300 300 299 300 301 301 301 301 302 303 303 304 307 310 311 310
305 304 303 303 302 302 301 301 300 299 299 300 300 301 302 305 308 311 314 316 319 322 324 326 326 327 327 326 327 327 327 328 328 328 328 328 327 326 327 327 327 328 329 329 329 329 328 327 327 327 326 324 325 324 321 319 316 312 313 317 319 318 318 319 319 315 313 310 303 300 300 299 299 300 301 301 302 302 303 304 305 307 310 311 310
305 304 303 303 302 301 301 301 300 298 297 297 298 299 301 304 307 311 313 315 318 320 322 324 326 327 327 327 327 327 326 327 327 327 327 328 328 327 327 327 327 328 328 328 329 329 327 326 326 325 325 324 324 324 323 321 316 313 313 315 318 319 318 318 319 318 317 314 306 301 299 300 299 300 301 301 302 303 304 305 305 307 309 310 310
304 304 304 303 302 301 300 300 299 298 297 296 297 298 300 303 306 310 313 315 317 318 319 322 325 327 327 326 326 326 326 326 326 327 327 328 328 328 327 326 326 327 327 327 328 328 326 326 325 324 324 324 323 323 323 322 319 315 313 313 315 319 319 316 316 317 317 314 310 303 299 299 300 300 301 302 303 304 304 305 306 306 307 309 309
303 304 304 303 302 301 300 300 299 298 297 296 296 298 301 303 306 309 312 314 316 317 318 320 323 324 325 326 325 325 325 326 326 327 327 327 327 328 327 326 326 326 327 328 328 327 326 326 325 324 324 324 324 323 323 322 321 318 315 312 311 314 316 314 312 314 315 314 313 308 302 300 300 300 301 303 303 304 305 305 305 306 307 307 308
301 302 303 302 302 301 300 299 299 297 296 296 296 298 300 303 306 308 310 312 314 315 317 319 322 324 325 325 325 325 325 325 326 326 326 327 327 327 327 327 327 327 326 326 328 328 327 326 325 324 323 323 324 323 322 322 322 320 316 313 310 311 313 313 312 313 313 313 314 311 305 302 301 301 301 302 303 304 305 305 306 306 306 307 307
301 301 301 301 301 300 299 299 298 297 296 296 296 297 299 302 304 306 307 309 312 314 314 316 320 322 323 324 325 325 325 325 326 326 326 326 326 327 327 328 328 327 326 326 327 328 327 327 326 325 324 323 323 324 323 322 321 320 317 313 310 310 311 312 312 313 312 313 313 311 307 305 304 302 302 303 303 303 303 304 305 305 306 306 306
300 300 300 300 300 299 299 298 298 297 297 296 297 296 297 300 302 303 304 306 308 310 311 312 313 315 318 321 323 324 324 324 325 326 326 326 326 326 327 327 327 327 327 327 327 327 327 327 326 326 325 324 323 324 324 323 322 321 318 314 311 310 311 312 312 313 312 312 313 311 309 308 308 305 304 304 304 304 303 303 304 304 305 305 304
300 300 300 300 300 299 298 298 297 297 296 296 297 297 297 297 299 300 301 302 304 305 306 307 307 308 311 314 318 319 320 322 323 325 326 326 326 326 326 326 326 326 327 328 328 328 327 327 326 325 325 325 324 324 323 322 322 321 319 316 313 312 312 312 312 312 312 312 312 312 311 310 310 308 306 306 306 306 306 306 305 305 305 305 306
300 300 300 300 299 299 298 298 297 297 296 296 297 297 296 296 297 297 298 299 299 300 301 302 303 304 305 307 311 313 315 317 321 322 323 324 325 326 326 326 325 325 326 327 327 327 326 326 325 325 325 325 325 324 322 321 321 320 318 316 315 313 313 314 314 313 313 313 312 312 312 312 312 310 309 308 308 308 308 308 308 307 307 307 307
299 299 300 300 299 299 298 298 297 297 296 296 296 296 296 296 296 296 296 297 297 297 298 298 300 301 302 302 305 308 311 314 317 319 321 323 323 324 325 325 324 325 325 325 325 325 325 325 325 326 326 325 325 324 323 321 320 320 318 316 316 316 316 317 317 316 314 314 313 313 313 312 312 311 310 309 309 310 309 309 309 308 308 307 306
298 298 299 300 299 299 298 298 297 297 296 296 296 296 296 296 296 296 296 296 296 296 297 297 297 299 300 300 302 304 307 309 312 316 320 321 322 323 324 324 323 323 324 324 324 324 325 324 325 326 325 324 325 325 323 321 321 320 318 316 316 317 318 319 318 316 315 314 314 314 314 312 311 311 310 308 309 309 308 308 307 307 306 306 305
296 296 298 299 299 299 298 298 298 297 297 297 296 296 296 296 296 296 296 296 296 296 296 296 296 297 298 300 301 302 304 307 310 313 316 319 321 322 324 324 322 322 323 323 323 324 324 324 323 322 320 321 323 324 323 322 322 322 320 317 316 317 319 319 318 317 317 315 315 316 315 312 310 311 310 309 308 307 306 307 307 306 306 306 306
Wind_Speed
9 10 10 11 12 11 10 11 11 11 13 15 16 16 14 14 12 8 6 8 10 12 14 13 12 11 11 9 9 8 9 11 10 9 7 5 4 5 4 5 8 9 10 10 10 10 9 9 9 9 10 10 10 10 9 10 11 11 12 12 11 11 12 12 12 12 12 13 13 14 14 14 13 14 15 15 15 15 17 18 18 18 18 19 19
10 11 12 12 13 14 13 13 14 14 15 16 17 19 17 15 15 13 11 11 13 14 13 13 12 13 13 9 10 7 3 6 9 10 8 6 5 4 4 5 7 9 11 11 10 11 10 10 9 9 9 10 10 11 10 10 10 11 11 12 12 11 12 12 12 12 12 13 13 12 12 12 12 13 15 15 14 14 16 17 18 18 18 19 19
12 13 13 13 14 15 15 15 17 17 18 18 18 20 19 15 15 15 15 16 18 16 12 13 13 13 14 11 11 11 5 5 6 8 8 7 6 5 4 6 9 10 11 12 11 11 10 10 10 10 9 9 10 10 10 11 11 11 11 12 12 12 12 12 12 12 11 12 12 12 12 11 12 12 13 13 13 14 15 15 16 17 17 17 18
13 14 14 14 15 16 16 16 17 17 19 21 20 20 20 16 15 15 17 18 17 17 14 16 16 13 15 14 13 15 11 6 5 7 8 8 8 6 5 7 10 11 11 12 13 13 12 11 10 10 10 9 9 10 10 10 11 11 11 12 12 12 12 12 11 11 11 11 11 11 11 10 11 11 11 12 12 13 14 14 15 15 15 16 16
12 13 14 15 16 16 17 17 17 17 18 21 21 21 20 19 16 15 17 17 16 17 15 17 19 15 15 16 14 14 13 11 8 8 10 10 9 7 6 7 10 11 12 12 13 14 14 12 11 11 10 9 9 9 10 10 10 11 11 12 12 12 13 12 11 11 10 10 10 10 10 10 10 10 11 11 11 13 14 14 14 14 14 15 16
12 12 13 15 17 17 17 18 18 18 18 18 20 20 20 20 18 15 15 16 15 14 14 18 21 17 16 15 13 13 12 12 11 8 11 12 10 9 8 7 9 11 12 13 14 14 13 13 12 12 11 10 9 9 9 9 10 11 12 13 12 12 13 12 11 11 10 10 10 10 10 10 10 10 11 11 11 12 13 14 15 15 15 15 16
11 12 13 15 16 18 18 18 18 19 18 18 18 19 19 20 19 17 15 14 13 12 12 17 19 17 17 14 11 14 12 13 13 10 10 12 11 10 10 9 10 11 12 13 14 13 13 13 12 12 10 10 11 10 9 9 9 10 12 13 13 12 13 12 11 11 10 10 10 10 10 11 11 11 11 11 11 12 13 14 14 15 15 16 16
11 12 13 15 16 17 18 18 18 19 19 18 19 19 19 19 19 18 17 15 14 13 13 16 18 18 18 13 10 15 15 13 14 11 8 11 12 12 12 12 11 11 12 14 13 12 13 14 14 13 10 10 12 11 9 9 9 10 11 13 14 13 13 12 11 11 11 11 10 11 11 11 12 11 10 10 10 12 13 13 14 14 14 15 14
12 13 14 15 17 18 19 18 18 19 19 19 19 18 18 18 18 18 18 17 18 17 15 16 18 19 19 14 11 16 18 15 16 14 11 12 13 15 16 14 13 12 13 14 13 12 12 13 15 15 11 11 12 11 10 9 10 10 9 12 14 14 14 13 12 11 11 11 11 11 12 12 12 10 10 11 11 12 12 12 13 12 12 12 12
14 15 15 16 17 18 18 17 16 18 19 20 20 18 18 19 19 18 19 19 19 19 19 18 18 18 18 16 13 14 17 17 17 18 14 13 14 16 19 18 15 14 13 14 12 11 12 12 15 16 14 12 12 13 12 10 10 10 9 12 15 14 14 14 13 12 11 11 11 11 13 14 12 10 10 11 12 12 12 12 11 11 10 10 10
15 16 16 17 18 18 17 16 16 18 19 20 20 19 19 20 20 19 20 20 19 19 20 20 18 18 17 16 15 14 16 17 18 18 16 15 14 14 21 22 17 15 14 14 13 11 12 13 14 16 15 14 13 14 14 12 11 10 9 13 16 15 14 14 13 13 12 11 11 11 13 15 13 10 11 12 12 12 11 10 9 9 9 9 10
16 17 17 19 19 19 18 17 18 19 19 20 20 21 22 22 21 20 20 20 20 19 19 19 18 18 17 17 17 15 16 17 17 17 15 16 13 11 21 25 20 17 16 15 14 12 12 14 14 14 15 16 16 15 15 14 13 12 11 13 17 16 15 15 14 14 14 12 11 11 13 16 13 10 12 12 11 10 10 9 9 9 9 9 9
17 18 18 20 20 20 20 19 19 20 21 21 21 21 22 22 22 21 21 21 21 21 20 18 15 14 13 15 18 17 16 16 17 18 15 16 13 11 20 26 21 20 19 16 15 14 13 13 13 14 14 15 17 17 17 15 15 15 13 14 17 17 15 15 15 15 15 14 12 12 14 15 12 10 12 12 10 9 8 9 8 9 8 8 8
16 18 18 19 20 20 20 19 19 20 22 23 22 21 22 22 22 21 21 21 22 22 21 18 14 14 11 7 10 14 16 15 16 17 16 15 13 13 21 24 21 21 20 17 16 15 15 13 13 14 14 14 16 18 19 17 16 17 15 15 17 18 16 16 16 16 15 15 13 12 14 15 12 10 11 11 9 8 7 8 8 8 8 8 9
15 16 16 16 17 17 18 18 19 20 22 23 23 23 23 23 22 21 20 20 22 22 22 21 19 15 9 4 3 5 9 13 16 18 18 16 15 15 20 22 20 20 19 17 17 16 16 15 14 14 14 14 14 17 20 20 19 18 18 17 17 18 17 16 16 16 16 15 14 14 14 14 12 10 11 11 8 7 7 8 8 8 8 8 9
14 14 14 15 16 17 18 19 19 20 21 22 22 22 23 24 23 22 20 18 20 22 23 25 23 16 7 3 2 2 4 8 12 19 21 19 17 17 18 18 19 20 19 18 17 16 16 17 16 15 15 15 14 15 18 20 20 20 19 19 18 18 17 16 16 16 16 16 15 15 15 14 12 11 11 10 8 6 7 8 8 8 9 9 10
12 13 14 17 18 18 19 19 20 21 21 20 19 20 22 23 23 23 22 21 20 22 23 25 27 25 16 6 3 2 3 5 7 13 21 22 20 19 18 18 18 19 20 19 18 17 16 18 18 17 18 19 17 16 17 19 20 21 22 21 21 19 18 18 16 15 16 16 15 15 15 15 13 12 11 10 8 6 6 8 8 8 9 10 11
11 11 13 17 19 19 18 19 20 20 19 19 21 22 22 22 23 23 25 25 25 24 23 25 27 30 28 19 12 5 2 6 5 4 13 20 20 19 19 18 18 19 20 19 18 18 17 18 18 17 19 21 20 18 17 18 19 21 23 23 22 21 20 19 17 15 15 16 16 15 16 16 14 13 12 10 8 7 7 8 9 10 10 11 12
10 10 11 13 16 18 18 19 18 17 18 20 22 23 23 23 23 24 26 27 28 25 24 25 24 27 30 28 23 14 7 6 5 2 4 9 14 17 18 18 18 19 20 20 18 18 19 18 17 17 19 21 22 20 18 18 18 19 21 21 22 22 21 20 18 17 16 17 17 15 16 16 16 15 12 10 9 7 8 9 10 11 12 12 14
12 12 12 13 15 16 16 17 18 17 18 20 20 20 22 23 24 24 25 26 27 26 25 24 23 24 27 28 27 21 15 11 7 5 3 3 7 11 15 18 19 20 20 21 20 18 19 19 18 18 20 22 23 22 20 18 18 19 19 20 21 22 23 21 19 17 17 18 18 16 16 16 16 16 13 11 10 8 9 10 11 12 13 13 15
14 14 14 15 15 17 16 15 16 17 17 19 18 18 20 23 25 25 24 23 25 26 26 25 26 26 24 25 24 21 19 15 12 10 5 4 4 4 9 13 15 20 22 21 20 19 19 19 19 18 19 22 23 23 22 19 18 19 18 19 21 22 23 22 20 18 17 18 18 17 18 18 17 16 15 12 11 10 10 12 12 14 14 15 15
16 15 15 15 14 16 17 16 16 17 18 20 20 19 20 23 24 24 24 23 24 26 27 27 28 29 26 24 22 18 15 13 13 13 8 5 4 5 9 12 11 16 22 23 21 19 19 19 20 19 18 20 21 23 23 20 19 19 18 18 20 22 23 22 21 19 18 19 20 19 19 19 18 17 16 13 12 11 12 13 14 15 16 16 16
17 17 17 17 16 15 16 17 17 18 18 19 21 22 22 22 23 23 23 24 25 24 26 28 27 27 27 25 23 21 19 16 16 16 10 6 5 4 9 14 12 13 20 23 22 20 18 20 21 20 19 20 22 24 23 20 19 17 17 18 20 22 23 23 22 19 20 22 21 20 21 20 19 18 16 14 13 13 14 14 15 16 17 17 17
20 20 19 20 20 19 18 18 19 19 19 20 22 22 21 20 21 22 22 24 26 23 24 27 26 25 26 27 26 27 27 25 23 22 18 15 10 5 7 12 10 10 17 21 22 22 20 21 23 22 21 21 24 26 24 22 19 16 18 19 18 21 23 24 23 22 24 24 20 21 23 21 21 19 16 15 15 14 15 16 17 18 18 18 18
24 24 23 22 22 22 21 21 21 21 19 20 22 22 21 20 20 22 22 22 24 24 25 28 28 27 27 27 27 27 29 28 26 25 23 20 14 8 9 12 9 8 13 19 21 21 21 22 24 25 24 23 25 28 27 25 21 16 18 20 19 21 25 25 24 25 26 24 21 23 24 23 22 19 18 18 17 17 17 18 19 19 19 19 18
25 26 25 23 23 23 22 22 22 21 19 21 22 24 25 23 23 25 23 22 23 25 27 29 29 28 27 26 27 28 29 28 27 26 24 21 18 13 10 9 9 8 10 17 20 18 19 23 26 26 25 24 26 27 28 28 22 17 19 21 21 23 25 26 26 27 25 22 22 24 25 24 22 20 20 20 18 18 19 20 21 21 21 20 19
24 24 24 24 25 24 23 22 22 22 22 22 23 24 25 25 25 26 25 24 25 26 28 28 27 27 27 26 27 28 28 28 27 27 27 25 24 21 15 8 5 6 7 11 16 18 20 23 26 29 25 23 25 26 28 29 23 18 19 21 22 24 26 27 27 26 23 21 23 25 26 25 23 22 22 21 20 20 21 22 23 23 23 22 20
23 23 24 24 25 26 25 24 23 24 24 23 23 24 26 26 26 25 26 26 24 25 26 26 26 25 25 25 25 26 28 30 29 29 29 29 28 27 23 15 8 4 4 6 8 13 20 22 24 29 27 22 22 24 26 27 25 21 21 21 23 25 27 28 27 25 23 22 23 26 27 26 25 24 23 22 21 22 22 23 24 24 24 23 22
24 24 24 24 25 25 25 24 24 24 24 24 24 25 26 27 27 26 27 26 25 25 25 25 24 22 23 24 24 25 28 29 30 30 31 31 29 28 28 25 17 8 4 6 6 9 17 22 23 28 29 24 21 22 24 27 28 25 23 23 23 25 27 28 27 24 23 24 25 27 28 28 27 25 24 23 23 23 23 24 25 25 25 24 22
23 24 25 25 25 24 24 26 27 26 26 26 25 25 26 27 28 27 26 24 24 25 26 25 24 21 22 23 24 26 28 28 29 30 31 31 29 29 28 28 26 16 8 6 7 12 18 22 24 28 31 29 24 23 23 27 30 28 25 25 23 24 26 27 27 25 24 25 26 28 29 29 27 25 25 24 24 24 24 25 25 25 25 23 21
21 23 24 25 26 27 26 28 29 28 26 25 25 25 25 26 26 26 25 24 23 23 24 24 22 21 21 22 23 26 28 29 29 29 30 30 30 29 27 27 28 23 17 10 6 12 20 23 24 26 30 31 28 25 24 28 32 29 27 26 24 24 25 26 27 26 25 26 27 28 29 28 27 25 25 25 24 24 25 25 25 25 24 23 21
21 22 23 25 28 29 29 30 30 29 27 25 24 23 23 23 24 24 25 23 23 23 23 23 21 20 20 21 22 25 28 29 29 28 28 28 28 29 27 27 27 25 23 17 7 8 19 26 26 25 28 31 30 28 26 28 32 30 28 26 25 25 26 26 28 27 26 27 27 28 28 27 26 25 25 25 24 25 26 26 26 25 24 23 21
22 22 23 25 27 29 30 32 32 29 26 24 23 21 20 22 22 22 22 20 20 18 17 18 18 18 18 20 22 24 25 26 27 27 26 26 27 27 26 26 28 27 25 20 11 7 13 22 26 24 26 29 30 29 28 29 33 33 29 26 26 27 26 27 28 28 28 28 28 28 27 26 26 26 25 25 25 26 27 27 27 26 25 23 21
23 24 24 24 26 27 29 33 35 33 30 27 25 22 20 20 21 20 18 16 16 14 13 14 16 16 16 18 21 23 23 24 26 26 25 25 25 25 27 26 26 28 28 24 16 11 11 17 24 24 25 29 30 28 27 31 35 35 31 28 27 27 27 26 29 30 29 29 28 28 27 27 26 26 26 26 26 27 27 27 27 26 25 24 22
25 24 24 24 26 26 26 33 38 37 35 33 29 27 24 21 19 18 16 13 13 13 12 12 13 14 14 15 18 22 22 22 24 25 25 24 23 25 28 29 28 29 30 27 21 16 15 17 23 26 26 29 31 28 27 31 35 34 31 29 27 27 26 26 28 30 30 30 29 28 28 27 27 26 26 27 27 27 27 28 27 27 26 24 22
29 27 26 26 29 28 25 30 39 40 38 38 34 31 29 25 21 18 15 13 12 12 10 10 11 11 13 14 16 20 22 22 24 24 24 24 24 25 28 30 31 31 29 28 25 22 20 19 22 28 29 30 31 27 26 31 34 34 32 29 27 26 25 26 28 29 30 30 30 30 29 28 28 27 27 27 28 28 28 28 28 27 26 25 23
33 32 33 31 30 29 25 27 38 43 41 40 39 35 32 29 25 20 17 15 13 13 11 10 10 10 13 14 15 19 21 24 26 22 19 19 20 22 27 29 31 31 29 29 29 25 24 22 21 25 28 29 28 25 26 32 34 32 31 30 29 27 26 27 28 28 29 29 30 30 30 29 28 28 28 28 28 29 29 28 28 28 27 25 23
33 34 37 37 32 31 28 25 35 45 44 42 41 39 36 33 28 24 21 18 15 13 11 10 10 10 13 15 16 18 20 24 26 21 17 18 19 24 30 28 27 29 29 30 30 25 24 24 22 23 26 28 27 25 26 34 35 31 29 28 29 30 29 30 30 29 29 30 31 31 31 30 30 29 29 29 29 29 29 28 28 28 27 26 24
32 33 35 36 35 36 33 27 32 44 47 45 44 43 39 35 31 28 25 21 17 14 11 10 10 11 13 15 17 18 19 21 23 20 16 19 23 28 32 28 26 28 29 28 28 25 23 23 22 23 26 28 28 26 25 31 34 32 30 28 26 28 31 32 32 31 30 30 31 32 32 31 31 30 30 29 29 29 28 28 28 28 28 26 25
31 32 33 33 34 37 36 30 31 43 50 48 46 45 41 36 32 28 26 24 20 16 12 10 9 10 12 13 15 16 16 17 19 19 17 17 24 28 30 26 25 27 28 26 25 25 23 22 22 24 25 25 27 26 24 25 28 28 30 31 28 29 32 32 32 31 31 32 33 33 33 33 32 31 30 30 29 29 28 28 28 28 28 28 26
28 31 33 33 34 36 36 32 31 41 49 46 44 45 42 36 31 27 25 24 20 16 14 12 10 8 9 10 11 12 13 14 15 16 17 17 21 25 27 26 23 25 27 24 23 23 22 20 22 24 23 22 25 26 24 25 28 27 28 29 29 30 32 32 32 31 29 29 33 35 35 34 34 33 33 32 31 30 29 29 29 29 29 28 26
28 30 32 34 35 36 35 33 32 39 46 45 44 45 42 34 29 25 23 21 19 17 16 15 14 11 8 8 8 9 10 10 11 13 16 18 19 22 26 28 26 25 26 25 23 23 21 19 21 23 22 20 25 29 28 29 30 28 27 27 27 28 29 26 26 30 31 30 31 36 37 35 35 34 34 34 33 32 31 30 30 30 29 28 27
30 29 31 32 34 36 36 34 33 36 43 47 47 48 44 35 28 24 23 22 20 20 20 19 18 14 9 7 9 9 9 9 9 10 13 16 18 20 23 27 28 27 27 27 26 25 23 21 22 24 23 22 26 30 30 30 29 28 30 30 27 27 27 22 18 22 31 33 32 34 36 36 36 36 35 34 33 33 32 31 30 29 29 28 26
32 30 30 30 32 34 35 34 33 35 42 48 50 51 47 39 30 25 24 24 23 23 23 22 20 16 12 12 12 10 10 10 10 9 10 13 17 19 21 25 28 29 29 29 28 29 28 25 22 23 25 26 27 29 30 31 30 29 31 32 30 29 29 26 22 23 30 36 34 33 35 35 36 36 36 35 34 33 31 30 30 29 28 27 26
32 31 30 30 31 33 34 33 32 34 41 48 50 52 50 44 35 29 26 26 25 24 25 24 20 15 12 13 13 11 12 12 12 12 10 11 14 18 21 24 26 27 27 28 28 29 31 30 26 26 28 29 28 31 34 34 31 29 30 31 32 31 31 30 30 30 32 35 35 32 31 33 36 37 37 35 34 34 33 32 31 30 28 28 25
32 31 30 30 30 32 33 33 32 33 39 46 49 51 52 48 42 35 30 28 26 26 26 25 22 19 16 13 13 14 15 14 13 14 13 11 11 15 21 26 26 25 26 26 27 28 30 30 29 29 31 31 30 32 34 32 30 29 32 34 34 32 33 34 35 35 34 35 36 31 26 29 35 35 35 34 32 32 32 31 30 29 28 27 24
31 30 29 28 29 30 32 33 32 33 37 43 46 48 50 49 45 41 37 32 29 27 26 25 24 23 21 18 15 15 15 13 12 11 12 14 13 14 20 25 26 27 26 24 24 26 27 28 28 28 28 28 28 28 27 28 30 30 30 36 38 34 33 33 31 31 32 35 39 31 20 23 32 31 28 28 27 26 25 24 23 24 23 22 20
30 30 28 27 27 29 31 33 33 34 36 41 43 44 47 48 46 43 41 36 32 30 29 28 27 26 25 24 21 18 16 13 11 8 9 11 12 15 18 20 22 24 25 22 21 23 24 24 25 23 22 23 24 22 22 25 29 28 26 30 34 31 27 24 21 23 27 32 38 31 17 18 27 27 21 20 21 20 19 17 17 18 20 22 21
30 30 26 25 26 28 30 31 33 34 36 40 42 41 43 45 43 41 39 36 34 33 31 30 29 28 27 27 25 23 21 17 14 11 9 9 11 16 18 17 17 19 22 22 20 20 21 22 21 19 19 20 21 21 23 22 22 25 27 27 27 26 22 17 14 18 23 26 31 30 21 21 26 26 21 19 20 22 22 22 22 22 21 22 20
30 29 24 22 25 28 30 30 30 32 34 38 41 41 41 42 41 39 37 34 32 33 33 31 31 31 29 27 27 26 24 22 18 14 12 10 12 17 19 17 15 17 22 24 20 18 19 20 20 19 18 20 21 21 24 23 19 22 29 32 30 27 23 18 15 16 17 18 24 28 23 24 28 29 27 24 20 24 27 25 24 23 22 20 18
30 30 26 23 24 27 28 29 30 31 32 36 38 39 40 41 39 37 36 34 32 32 32 31 32 33 31 30 29 27 25 23 21 16 12 9 10 16 19 17 17 20 23 25 23 23 22 21 20 17 16 18 19 19 21 23 20 19 23 29 33 31 27 24 22 18 10 9 20 29 27 26 31 34 34 24 13 14 23 26 24 23 22 20 19
Wind_Direction
221 224 220 220 229 235 237 233 220 214 214 215 217 219 234 245 238 241 243 250 260 268 276 256 234 244 246 242 243 233 216 223 231 220 210 199 168 154 162 167 181 181 164 160 160 157 157 154 149 145 140 137 135 133 129 126 123 120 117 114 110 108 108 107 106 104 101 101 98 96 96 96 98 98 97 97 96 95 93 91 90 90 90 88 86
235 233 231 230 232 234 234 234 228 226 223 221 222 222 232 241 230 225 228 236 246 256 262 243 230 236 243 243 231 221 167 193 220 216 202 194 183 173 178 186 190 176 164 168 165 160 160 156 155 152 151 152 148 142 137 131 126 124 124 121 117 112 111 110 108 107 105 104 102 99 99 101 100 98 98 99 100 98 94 91 92 93 94 91 88
242 238 238 236 234 234 233 234 234 232 231 231 232 232 234 236 229 222 219 225 236 244 243 235 235 236 236 237 230 230 197 165 204 220 213 199 191 193 198 199 191 177 170 172 165 161 164 160 157 159 163 163 155 149 143 137 133 131 130 127 124 119 115 112 108 108 107 105 106 103 99 101 99 97 99 103 104 100 96 93 93 95 95 93 89
243 240 239 238 236 236 233 234 238 235 233 235 238 239 239 240 242 238 229 227 236 242 236 234 240 235 229 235 234 231 229 217 210 229 234 213 194 197 205 204 194 185 180 175 166 167 170 164 162 166 169 165 157 155 151 147 144 139 136 132 127 126 123 118 115 113 111 108 109 106 101 104 103 102 104 105 106 101 97 96 95 96 96 94 92
241 239 237 238 237 237 234 234 236 234 234 237 240 241 243 246 249 250 244 237 239 240 235 235 237 230 228 237 235 229 231 227 223 234 235 220 208 208 199 196 195 191 187 179 172 171 169 166 168 172 173 166 155 156 158 155 154 148 141 137 134 135 131 126 124 120 117 114 111 107 105 106 105 107 109 107 106 102 99 97 95 97 98 97 95
240 240 237 238 237 237 235 235 234 233 236 240 244 245 246 248 247 249 249 248 247 243 238 232 229 227 232 241 236 227 223 217 218 226 224 220 220 212 195 190 193 192 187 178 175 172 165 168 175 179 178 166 155 162 170 165 160 156 147 143 143 142 136 131 131 128 125 120 117 113 108 109 109 110 112 111 108 103 101 100 98 98 100 100 99
247 247 246 244 240 238 239 240 239 238 241 246 252 252 251 250 247 245 242 244 247 246 245 233 224 226 233 244 233 214 209 209 214 219 215 220 226 216 200 196 193 193 188 178 176 173 167 173 184 192 185 166 167 177 179 172 162 158 154 151 151 146 140 138 137 135 131 127 123 119 114 114 116 115 118 116 111 107 105 104 101 100 101 101 100
249 250 254 252 247 244 245 246 243 241 245 249 253 254 254 254 250 245 237 233 232 235 244 237 232 231 232 243 233 209 205 204 208 211 196 200 220 222 210 202 194 196 193 182 176 173 173 178 185 198 196 172 175 182 177 172 165 163 162 159 157 150 143 142 141 139 136 132 127 122 120 120 121 123 123 118 113 112 111 108 104 102 103 103 101
245 250 256 254 252 252 250 249 245 243 245 248 251 253 256 257 252 246 239 233 230 229 232 229 230 234 234 242 237 216 212 207 208 214 201 192 205 214 218 212 197 195 195 189 184 180 182 184 187 198 201 183 180 184 179 172 167 171 171 163 163 157 149 147 147 145 139 133 130 128 125 125 127 128 122 118 117 119 117 112 108 106 105 105 106
243 247 252 253 253 254 252 251 249 246 247 248 250 251 253 256 254 250 244 241 238 233 231 227 226 231 238 245 242 223 216 214 215 220 218 210 201 207 222 219 203 198 195 191 192 189 190 192 193 200 204 197 189 188 188 182 173 177 179 168 167 163 157 156 153 147 141 137 137 135 132 130 132 133 125 122 123 121 118 114 114 115 112 107 107
243 244 247 252 254 255 253 250 250 254 255 253 252 251 252 254 254 254 250 249 248 243 238 236 232 233 239 244 241 227 218 218 220 221 222 217 203 207 221 216 204 205 201 196 198 197 199 202 201 202 207 206 197 192 193 192 184 182 184 173 169 168 165 161 156 150 146 145 143 142 140 136 136 139 131 124 121 119 119 118 120 122 119 114 111
243 245 245 249 253 256 255 249 248 253 257 258 256 254 254 255 255 256 255 255 255 250 243 240 240 238 240 242 239 234 229 226 224 224 223 216 206 207 215 210 203 206 205 203 207 205 203 207 209 208 208 206 202 199 199 199 193 188 188 179 172 172 172 165 161 160 155 153 150 149 147 138 138 144 133 126 123 120 120 120 122 124 124 120 117
248 251 250 252 254 255 257 255 249 247 252 259 261 258 256 257 258 257 257 257 256 252 245 240 241 238 237 242 241 240 240 235 227 224 223 220 216 208 208 205 201 203 205 206 210 209 208 208 210 210 209 206 204 203 205 204 198 193 191 185 177 175 175 168 167 168 162 160 156 150 148 140 142 148 137 131 130 123 120 123 124 126 128 124 122
256 258 257 256 256 255 256 257 254 251 251 254 257 256 255 256 256 256 255 254 254 255 249 238 232 230 227 235 244 243 243 239 228 220 218 223 224 209 203 202 198 200 205 207 207 209 214 212 205 206 209 207 203 205 207 206 202 195 192 190 184 180 179 174 173 173 167 163 158 151 149 144 147 153 143 139 135 127 125 124 125 128 130 129 126
268 265 261 258 258 257 257 257 255 253 252 252 254 255 255 254 252 252 252 251 250 252 248 238 229 226 223 220 231 243 246 240 231 224 215 213 215 202 197 199 200 203 206 206 205 207 212 214 208 205 208 207 203 206 209 209 206 199 195 193 189 185 184 181 181 181 173 166 162 157 153 148 153 158 150 147 143 133 131 127 128 132 131 129 127
276 268 262 262 264 262 261 258 254 254 253 251 253 256 259 257 252 250 249 247 247 247 246 240 231 222 212 213 191 191 246 232 224 226 219 214 217 210 202 201 203 207 208 207 206 207 208 212 212 209 210 213 210 211 213 211 209 204 200 197 193 190 189 189 190 189 180 172 168 164 159 155 160 163 155 153 151 143 139 135 133 132 130 130 129
269 269 262 258 259 261 263 262 258 259 256 256 259 260 261 260 254 249 245 242 242 244 243 240 234 226 215 205 185 202 241 202 198 227 223 222 226 219 216 215 211 211 211 212 212 209 209 211 214 213 213 217 217 217 217 213 211 207 205 202 198 195 194 194 197 195 184 175 172 170 165 163 165 166 161 158 162 159 149 144 139 133 131 132 132
266 273 267 258 256 258 264 266 263 263 263 267 271 268 263 259 254 249 246 245 243 241 240 238 238 234 225 221 223 228 229 180 168 227 225 225 228 221 223 225 222 219 215 214 212 209 211 213 216 216 213 215 218 218 214 210 210 208 207 206 202 199 198 198 200 198 187 177 175 172 169 171 172 170 167 168 174 172 159 151 142 136 133 132 131
290 288 277 271 267 263 266 268 268 271 273 273 272 272 269 263 259 254 251 250 243 236 237 236 234 236 232 229 230 232 236 208 179 151 196 219 226 221 224 228 225 222 218 216 212 212 215 215 215 213 208 209 214 216 210 205 207 206 206 205 203 203 202 201 202 197 189 180 178 177 175 177 177 173 173 178 185 182 167 155 144 140 137 133 132
315 309 298 291 287 281 280 278 278 281 279 274 270 271 273 269 265 260 255 252 246 239 239 236 231 233 233 231 231 230 232 234 215 195 159 175 215 217 220 225 224 221 220 219 216 216 217 215 213 209 204 203 207 213 212 206 203 203 204 201 201 204 203 201 201 197 193 184 179 179 177 177 180 179 180 185 190 187 168 157 149 145 141 139 137
327 321 313 302 296 296 297 292 285 279 273 272 272 272 273 273 269 265 262 261 259 252 244 236 232 234 232 228 229 226 224 234 233 223 208 166 186 207 206 212 218 220 219 218 216 216 216 214 213 209 204 200 202 209 211 206 202 202 203 201 200 202 201 200 198 197 193 180 176 178 174 177 183 183 185 190 195 187 168 159 154 148 144 145 143
342 336 330 322 310 304 305 303 295 286 278 273 272 272 272 273 273 272 271 270 266 258 249 240 236 236 235 228 226 219 215 229 234 224 213 184 190 202 195 194 204 215 214 214 214 213 213 212 211 210 203 197 196 201 205 202 199 201 201 199 201 201 200 199 196 194 184 174 178 179 174 179 183 182 185 192 199 187 167 161 156 151 148 148 146
349 344 342 339 331 320 312 309 306 300 292 281 277 278 276 275 277 278 276 271 265 260 255 250 242 237 235 229 225 221 215 216 220 214 206 195 195 194 200 203 206 209 211 213 213 212 212 208 207 207 197 189 192 198 201 200 201 203 199 197 199 199 198 195 193 189 177 177 184 179 174 180 182 183 185 190 199 186 165 161 158 153 153 150 148
349 347 346 342 337 329 320 313 311 307 299 293 290 288 284 281 279 277 274 270 264 261 258 252 245 240 236 230 228 227 221 218 217 213 208 204 197 181 192 201 210 218 214 212 211 212 213 207 203 203 196 192 197 200 201 202 204 205 201 199 199 197 196 193 189 184 178 183 190 178 173 180 183 186 185 185 193 181 163 162 160 157 156 152 150
347 348 348 345 338 331 324 317 313 310 304 301 299 292 289 288 282 277 274 269 263 260 255 249 246 243 236 229 226 226 225 225 222 216 214 209 205 200 193 194 199 209 210 208 207 210 214 212 205 200 197 197 200 202 202 202 202 204 202 200 199 195 192 189 186 184 184 190 193 178 172 178 183 186 183 183 186 175 165 166 162 159 157 154 154
347 349 350 348 343 336 328 321 318 314 308 306 305 301 298 293 284 279 274 265 260 259 254 249 247 243 235 228 225 224 226 228 224 220 218 211 206 201 189 193 200 193 197 202 201 202 210 213 207 199 196 199 203 205 203 200 199 201 200 197 197 193 188 187 187 187 190 194 190 177 175 180 182 182 182 184 182 173 169 168 164 161 159 158 159
348 349 350 348 345 342 336 330 325 319 312 310 310 307 304 299 290 281 275 269 264 258 253 252 247 239 234 230 227 225 225 227 227 225 222 217 214 207 192 181 196 195 196 202 201 204 206 207 206 202 197 199 206 206 200 198 201 202 195 193 194 190 187 188 188 190 193 194 186 176 177 183 184 183 186 185 181 176 174 171 167 164 163 163 163
350 349 349 348 345 342 340 337 332 325 318 313 311 309 305 299 294 287 280 277 267 254 250 251 249 241 234 230 226 226 230 232 232 229 226 223 221 215 203 192 187 188 200 203 204 213 209 202 204 205 200 196 200 200 196 199 205 202 193 190 190 187 188 190 190 192 195 191 182 175 178 186 187 187 189 187 181 178 176 173 170 168 167 168 167
353 352 353 353 348 344 342 339 334 329 322 315 310 309 305 298 293 289 285 281 268 256 251 249 249 243 234 229 226 228 232 233 233 231 228 226 222 218 212 206 200 187 187 203 202 210 207 201 201 204 202 199 198 195 196 201 204 201 194 191 190 187 188 191 192 195 196 191 183 178 182 190 192 191 191 187 183 180 178 176 175 173 173 173 172
357 358 0 1 357 352 347 341 334 327 320 314 310 307 304 300 294 288 287 281 267 258 253 249 247 243 235 232 227 227 230 230 231 231 227 225 222 218 216 213 208 203 192 195 209 208 202 200 203 206 204 204 202 195 196 201 201 200 197 194 194 193 191 193 195 197 196 193 188 184 187 193 195 195 193 188 184 181 179 179 179 178 178 177 176
359 1 3 4 3 0 353 346 340 334 325 316 311 308 305 301 294 289 288 281 266 257 256 252 246 238 234 234 229 226 230 230 230 230 227 225 222 218 218 215 213 213 205 196 211 210 201 199 204 208 206 204 201 196 196 200 199 198 199 197 197 197 195 196 197 198 198 196 193 192 193 195 197 197 194 189 186 184 182 182 183 183 182 181 180
4 3 3 5 6 6 4 359 354 347 338 327 319 314 310 307 299 293 291 283 270 262 259 253 247 240 236 236 233 229 231 231 229 228 227 224 221 219 219 218 216 217 210 203 209 208 203 204 204 206 207 203 197 194 195 198 198 198 200 200 198 196 197 198 199 199 200 199 197 197 198 198 198 197 194 191 188 186 185 185 186 186 186 186 185
10 7 7 9 11 14 15 14 12 7 360 352 342 333 325 322 313 301 293 284 273 264 256 251 248 246 243 240 238 234 232 232 230 230 229 226 224 220 220 220 219 217 212 207 209 199 200 207 205 203 204 200 193 192 195 197 196 197 200 201 199 196 197 200 200 200 202 202 201 201 201 201 200 197 195 194 191 190 189 189 189 189 190 191 189
11 10 10 10 13 18 17 15 17 17 16 14 8 1 353 343 331 317 303 289 274 260 249 246 241 237 239 241 242 242 241 239 235 234 233 231 226 221 220 221 219 219 218 213 208 193 183 199 202 198 199 197 191 190 196 197 195 195 198 200 200 199 199 202 202 201 203 204 204 203 203 202 201 199 197 196 194 193 193 193 193 193 193 193 192
13 12 11 11 16 20 15 12 16 16 14 15 13 11 10 3 351 335 317 299 284 266 251 249 244 237 235 239 244 248 250 251 245 239 235 231 223 219 224 226 221 220 218 212 206 194 181 188 196 193 193 195 190 186 195 200 195 193 196 199 198 197 200 204 205 204 204 205 206 205 205 204 203 202 200 199 198 197 198 198 197 197 197 196 196
21 19 18 17 20 22 17 13 16 17 14 13 12 10 10 8 4 354 337 321 305 289 271 264 260 252 246 245 248 251 253 255 253 245 237 230 222 219 225 226 221 219 214 208 207 203 192 187 192 195 194 193 190 187 193 199 195 192 195 197 194 194 199 205 208 209 208 208 207 207 207 206 205 204 203 202 201 200 202 202 201 202 201 200 200
27 28 29 26 22 22 20 13 16 19 17 13 11 10 8 5 3 359 352 343 328 312 299 282 269 260 259 259 256 255 254 253 250 246 237 232 228 227 227 223 218 216 210 207 209 207 200 192 188 195 197 195 192 189 192 194 190 189 193 196 195 196 200 204 208 212 212 211 210 209 208 208 207 207 206 205 204 204 205 205 205 205 205 205 205
28 29 32 32 26 23 23 16 16 20 19 15 12 9 7 5 1 358 354 349 340 331 321 304 288 271 264 264 261 257 253 248 244 243 238 229 228 235 232 223 216 213 210 209 208 205 204 199 189 189 194 195 191 184 189 193 188 185 189 192 195 198 200 203 206 209 213 213 212 210 209 209 209 209 209 208 208 207 207 208 208 209 209 210 210
28 27 28 30 28 26 26 22 18 19 19 17 13 9 6 4 1 357 354 349 343 341 336 322 305 289 277 272 267 260 253 247 243 243 236 218 217 232 236 226 216 214 213 210 206 204 205 199 190 186 188 194 193 182 183 193 192 189 186 184 188 195 199 204 205 206 210 213 213 213 211 210 211 211 211 211 211 211 211 211 212 212 213 214 215
27 27 27 26 25 25 25 24 20 18 19 17 12 8 5 2 360 357 355 351 345 339 337 333 319 301 290 280 271 266 261 256 250 245 241 224 215 227 236 229 217 215 215 211 206 205 204 195 187 186 185 189 192 185 180 188 192 193 191 187 187 191 196 204 208 208 210 212 212 212 212 212 212 212 213 214 214 214 214 215 215 216 217 218 219
24 26 27 26 24 23 22 21 19 17 17 15 11 9 6 1 359 358 356 353 349 342 335 333 332 323 307 292 283 284 280 272 263 252 247 237 219 219 231 233 221 212 212 211 205 200 198 191 183 183 185 187 188 185 185 191 193 195 196 193 192 192 194 200 206 209 212 213 211 210 211 211 211 212 213 214 215 215 215 217 218 219 220 221 223
22 23 25 25 25 23 20 20 19 16 15 12 11 12 11 6 2 1 359 357 356 352 343 333 331 332 330 319 307 300 291 283 277 259 246 241 231 227 236 238 228 215 209 207 205 199 196 193 184 179 184 190 189 188 191 196 196 197 198 198 196 193 191 193 200 208 213 213 209 209 211 212 212 213 214 215 216 215 215 217 219 220 221 222 224
25 24 24 25 24 22 21 21 19 16 14 12 12 14 14 12 9 7 8 6 4 2 354 343 336 330 321 321 320 310 296 285 282 269 250 243 238 236 239 239 232 223 213 205 202 199 197 196 190 183 186 193 195 194 194 195 196 198 202 202 197 190 186 186 190 202 211 212 207 207 210 211 212 214 215 217 217 216 217 219 220 221 222 223 225
30 27 25 25 24 21 21 21 20 17 13 13 14 15 16 16 15 15 16 13 8 5 359 350 343 331 316 317 323 321 310 298 292 283 261 247 240 234 236 240 237 229 221 213 206 200 198 198 194 190 191 195 197 197 196 196 198 201 203 204 201 192 186 187 188 195 206 209 206 204 207 209 211 214 217 218 219 218 219 221 221 222 222 224 226
32 30 28 27 25 23 22 22 21 17 14 14 15 15 16 18 20 21 22 17 11 9 7 4 2 353 336 327 328 328 324 317 307 295 278 257 243 232 228 234 238 233 225 221 217 211 205 202 198 198 199 198 198 200 200 200 200 201 201 202 202 198 191 190 193 196 202 204 201 200 204 208 210 214 217 220 221 222 222 224 225 224 224 225 227
32 31 29 27 27 26 25 24 22 19 16 15 15 15 16 19 22 23 24 21 15 14 16 16 15 13 3 349 337 329 326 327 322 309 291 273 252 231 216 213 219 225 222 220 220 217 213 208 205 206 205 203 204 206 205 204 204 205 204 201 199 198 198 199 201 201 200 200 200 200 202 207 210 212 216 219 222 224 226 227 227 227 227 226 221
33 31 29 27 26 26 25 23 21 18 16 15 16 16 15 17 21 23 24 23 17 14 15 14 12 13 9 1 351 336 329 329 328 313 290 277 263 240 218 207 206 212 216 217 217 216 215 213 211 212 211 209 211 211 210 211 211 212 212 205 200 200 202 203 201 199 198 198 200 199 195 201 206 205 208 216 219 221 225 227 226 223 219 211 200
33 30 29 27 24 23 23 22 21 18 17 17 18 18 17 17 19 20 22 22 17 13 13 11 12 14 10 5 359 348 340 333 321 302 282 269 252 238 229 217 208 209 212 215 215 213 211 211 211 213 213 212 212 211 210 211 211 213 210 199 195 199 200 194 186 186 191 195 199 198 182 178 194 193 190 201 209 205 199 193 190 188 181 173 170
29 25 26 28 25 21 21 21 21 19 18 19 20 20 19 18 19 19 19 19 16 15 14 11 13 15 13 10 6 359 353 346 330 311 289 259 232 231 232 221 208 209 213 217 213 207 206 206 206 209 207 203 203 202 201 202 206 208 201 191 191 195 189 179 171 173 179 187 197 199 180 164 179 182 165 162 171 165 156 152 152 155 156 155 154
25 21 22 28 26 22 20 20 19 18 17 18 20 22 21 20 20 19 18 16 15 15 14 12 14 16 15 14 13 9 2 354 344 328 304 274 243 233 230 217 201 200 209 215 209 198 198 198 196 197 192 187 191 194 195 196 198 199 198 199 203 200 185 176 169 159 157 169 184 188 174 157 166 166 147 134 139 144 143 143 145 147 146 144 140
25 21 22 27 27 22 19 18 16 14 12 13 17 21 22 21 20 20 19 17 14 13 12 12 13 16 16 16 16 14 8 358 349 341 326 299 253 232 226 218 208 202 205 209 205 197 193 186 183 185 176 173 183 188 189 194 192 188 193 200 204 203 195 184 171 158 145 149 167 172 165 154 157 157 147 137 127 140 150 150 148 150 148 141 134